N406MR KFLL-KEYW

Flight info

Callsign N406MR
Flight time N/A
Altitude 4000
Route MAYNR3 MAYNR DCT FNTSY FNTSY1
Aircraft B06/L-SFG/C

Departure

Time 2026-05-06 14:40
Airport Fort Lauderdale Hollywood International Airport (KFLL)

Arrival

Time N/A
Airport Key West International Airport (KEYW)
Time Latitude Longitude Altitude Speed Heading
2026-05-06 14:38 26.06947 -80.15491 10 ft 0 kts 45°
2026-05-06 14:38 26.06966 -80.15470 30 ft 10 kts 51°
2026-05-06 14:39 26.06981 -80.15347 53 ft 23 kts 95°
2026-05-06 14:39 26.06884 -80.15305 33 ft 24 kts 181°
2026-05-06 14:39 26.06674 -80.15319 43 ft 37 kts 146°
2026-05-06 14:39 26.06585 -80.15048 48 ft 55 kts 96°
2026-05-06 14:40 26.06563 -80.14543 139 ft 70 kts 95°
2026-05-06 14:40 26.06528 -80.13993 313 ft 74 kts 94°
2026-05-06 14:40 26.06485 -80.13414 494 ft 75 kts 95°
2026-05-06 14:40 26.06452 -80.12838 776 ft 76 kts 95°
2026-05-06 14:41 26.06416 -80.12234 1041 ft 80 kts 94°
2026-05-06 14:41 26.06381 -80.11618 1395 ft 80 kts 95°
2026-05-06 14:41 26.06011 -80.11095 1490 ft 107 kts 149°
2026-05-06 14:41 26.05243 -80.10835 1470 ft 121 kts 166°
2026-05-06 14:42 26.04394 -80.10816 1464 ft 126 kts 183°
2026-05-06 14:42 26.03513 -80.10940 1465 ft 126 kts 186°
2026-05-06 14:42 26.02642 -80.11085 1467 ft 127 kts 186°
2026-05-06 14:42 26.01778 -80.11216 1466 ft 127 kts 186°
2026-05-06 14:43 26.00895 -80.11332 1468 ft 129 kts 184°
2026-05-06 14:43 26.00000 -80.11440 1468 ft 130 kts 182°
2026-05-06 14:43 25.99106 -80.11541 1468 ft 129 kts 184°
2026-05-06 14:43 25.98218 -80.11623 1468 ft 128 kts 182°
2026-05-06 14:44 25.97329 -80.11698 1467 ft 128 kts 181°
2026-05-06 14:44 25.96442 -80.11772 1471 ft 129 kts 181°
2026-05-06 14:44 25.95540 -80.11845 1469 ft 131 kts 180°
2026-05-06 14:45 25.93659 -80.11979 1469 ft 139 kts 180°
2026-05-06 14:45 25.92701 -80.12041 1467 ft 137 kts 181°
2026-05-06 14:45 25.91757 -80.12106 1470 ft 136 kts 181°
2026-05-06 14:45 25.90817 -80.12161 1477 ft 134 kts 180°
2026-05-06 14:46 25.89887 -80.12206 1478 ft 132 kts 180°
2026-05-06 14:46 25.88965 -80.12251 1477 ft 133 kts 181°
2026-05-06 14:46 25.88039 -80.12296 1478 ft 134 kts 180°
2026-05-06 14:46 25.87102 -80.12349 1475 ft 135 kts 180°
2026-05-06 14:47 25.86163 -80.12401 1473 ft 134 kts 181°
2026-05-06 14:47 25.85295 -80.12709 1474 ft 133 kts 216°
2026-05-06 14:47 25.84695 -80.13469 1469 ft 128 kts 234°
2026-05-06 14:47 25.84161 -80.14140 1471 ft 105 kts 212°
2026-05-06 14:48 25.83571 -80.14527 1471 ft 94 kts 204°
2026-05-06 14:48 25.82988 -80.14731 1469 ft 84 kts 168°
2026-05-06 14:48 25.82467 -80.14477 1475 ft 83 kts 145°
2026-05-06 14:48 25.81927 -80.14087 1474 ft 103 kts 144°
2026-05-06 14:49 25.81300 -80.13612 1472 ft 116 kts 143°
2026-05-06 14:49 25.80605 -80.13078 1466 ft 124 kts 143°
2026-05-06 14:49 25.79867 -80.12555 1464 ft 128 kts 156°
2026-05-06 14:49 25.79003 -80.12615 1464 ft 127 kts 205°
2026-05-06 14:50 25.78322 -80.13248 1470 ft 130 kts 227°
2026-05-06 14:50 25.77766 -80.14055 1468 ft 133 kts 234°
2026-05-06 14:50 25.77241 -80.14894 1467 ft 131 kts 234°
2026-05-06 14:50 25.76716 -80.15727 1471 ft 133 kts 233°
2026-05-06 14:51 25.76177 -80.16551 1465 ft 130 kts 232°
2026-05-06 14:51 25.75642 -80.17347 1465 ft 127 kts 230°
2026-05-06 14:51 25.75105 -80.18120 1465 ft 125 kts 230°
2026-05-06 14:51 25.74566 -80.18879 1467 ft 126 kts 228°
2026-05-06 14:52 25.74018 -80.19638 1470 ft 127 kts 229°
2026-05-06 14:52 25.73460 -80.20402 1467 ft 128 kts 229°
2026-05-06 14:52 25.72893 -80.21172 1469 ft 129 kts 227°
2026-05-06 14:52 25.72322 -80.21945 1467 ft 130 kts 228°
2026-05-06 14:53 25.71752 -80.22714 1467 ft 128 kts 228°
2026-05-06 14:53 25.71187 -80.23476 1468 ft 128 kts 229°
2026-05-06 14:53 25.70623 -80.24234 1466 ft 127 kts 228°
2026-05-06 14:53 25.70064 -80.24987 1469 ft 128 kts 227°
2026-05-06 14:54 25.69486 -80.25761 1467 ft 131 kts 227°
2026-05-06 14:54 25.68906 -80.26540 1465 ft 130 kts 229°
2026-05-06 14:54 25.68335 -80.27305 1467 ft 128 kts 229°
2026-05-06 14:54 25.67774 -80.28060 1464 ft 126 kts 229°
2026-05-06 14:55 25.67221 -80.28804 1473 ft 126 kts 229°
2026-05-06 14:55 25.66652 -80.29567 1470 ft 129 kts 229°
2026-05-06 14:55 25.66077 -80.30336 1468 ft 130 kts 227°
2026-05-06 14:55 25.65497 -80.31113 1473 ft 134 kts 227°
2026-05-06 14:56 25.64892 -80.31923 1459 ft 135 kts 227°
2026-05-06 14:56 25.64311 -80.32703 1464 ft 129 kts 227°
2026-05-06 14:56 25.63745 -80.33463 1468 ft 127 kts 229°
2026-05-06 14:56 25.63181 -80.34220 1466 ft 128 kts 228°
2026-05-06 14:57 25.62608 -80.34989 1470 ft 130 kts 229°
2026-05-06 14:57 25.62034 -80.35757 1468 ft 129 kts 228°
2026-05-06 14:57 25.61462 -80.36522 1467 ft 128 kts 229°
2026-05-06 14:57 25.60900 -80.37276 1467 ft 126 kts 229°
2026-05-06 14:58 25.60339 -80.38028 1468 ft 128 kts 228°
2026-05-06 14:58 25.59768 -80.38793 1466 ft 128 kts 229°
2026-05-06 14:58 25.59202 -80.39550 1469 ft 128 kts 228°
2026-05-06 14:58 25.58629 -80.40317 1466 ft 129 kts 228°
2026-05-06 14:59 25.58067 -80.41070 1469 ft 128 kts 227°
2026-05-06 14:59 25.57684 -80.41583 1469 ft 128 kts 227°
2026-05-06 14:59 25.57113 -80.42348 1468 ft 129 kts 228°
2026-05-06 14:59 25.56547 -80.43105 1467 ft 126 kts 229°
2026-05-06 15:00 25.55983 -80.43860 1457 ft 129 kts 227°
2026-05-06 15:00 25.55222 -80.44877 1458 ft 129 kts 228°
2026-05-06 15:00 25.54647 -80.45645 1469 ft 131 kts 228°
2026-05-06 15:00 25.54257 -80.46166 1466 ft 130 kts 229°
2026-05-06 15:01 25.53685 -80.46931 1471 ft 128 kts 228°
2026-05-06 15:01 25.53120 -80.47687 1469 ft 128 kts 227°
2026-05-06 15:01 25.52555 -80.48443 1469 ft 128 kts 228°
2026-05-06 15:01 25.51985 -80.49205 1468 ft 130 kts 228°
2026-05-06 15:02 25.51406 -80.49978 1467 ft 131 kts 229°
2026-05-06 15:02 25.50824 -80.50755 1466 ft 131 kts 227°
2026-05-06 15:02 25.50244 -80.51530 1465 ft 130 kts 227°
2026-05-06 15:02 25.49670 -80.52297 1467 ft 128 kts 229°
2026-05-06 15:03 25.49106 -80.53050 1467 ft 129 kts 229°
2026-05-06 15:03 25.48522 -80.53830 1469 ft 130 kts 227°
2026-05-06 15:03 25.47943 -80.54603 1466 ft 131 kts 228°
2026-05-06 15:03 25.47376 -80.55359 1464 ft 128 kts 229°
2026-05-06 15:04 25.46815 -80.56109 1467 ft 126 kts 229°
2026-05-06 15:04 25.46261 -80.56850 1467 ft 126 kts 227°
2026-05-06 15:04 25.45707 -80.57591 1467 ft 125 kts 227°
2026-05-06 15:04 25.45146 -80.58339 1464 ft 127 kts 228°
2026-05-06 15:05 25.44582 -80.59090 1462 ft 127 kts 228°
2026-05-06 15:05 25.44015 -80.59845 1464 ft 128 kts 227°
2026-05-06 15:05 25.43446 -80.60603 1464 ft 128 kts 228°
2026-05-06 15:05 25.42881 -80.61356 1463 ft 127 kts 226°
2026-05-06 15:06 25.42321 -80.62104 1466 ft 126 kts 228°
2026-05-06 15:06 25.41764 -80.62847 1462 ft 126 kts 229°
2026-05-06 15:06 25.41199 -80.63599 1463 ft 129 kts 227°
2026-05-06 15:06 25.40624 -80.64364 1461 ft 130 kts 227°
2026-05-06 15:07 25.40049 -80.65130 1462 ft 130 kts 228°
2026-05-06 15:07 25.39475 -80.65894 1461 ft 129 kts 227°
2026-05-06 15:07 25.38910 -80.66647 1462 ft 126 kts 227°
2026-05-06 15:07 25.38349 -80.67396 1461 ft 126 kts 227°
2026-05-06 15:08 25.37785 -80.68146 1462 ft 127 kts 229°
2026-05-06 15:08 25.37216 -80.68902 1461 ft 128 kts 229°
2026-05-06 15:08 25.36646 -80.69662 1462 ft 129 kts 227°
2026-05-06 15:08 25.36073 -80.70424 1459 ft 128 kts 227°
2026-05-06 15:09 25.35510 -80.71175 1458 ft 126 kts 227°
2026-05-06 15:09 25.34951 -80.71920 1457 ft 125 kts 227°
2026-05-06 15:09 25.34390 -80.72665 1464 ft 127 kts 229°
2026-05-06 15:09 25.33820 -80.73422 1461 ft 128 kts 227°
2026-05-06 15:10 25.33246 -80.74184 1460 ft 129 kts 228°
2026-05-06 15:10 25.32675 -80.74943 1458 ft 127 kts 228°
2026-05-06 15:10 25.32113 -80.75691 1462 ft 126 kts 228°
2026-05-06 15:10 25.31553 -80.76436 1460 ft 125 kts 228°
2026-05-06 15:11 25.30994 -80.77179 1459 ft 126 kts 228°
2026-05-06 15:11 25.30431 -80.77928 1459 ft 127 kts 228°
2026-05-06 15:11 25.29864 -80.78680 1458 ft 128 kts 228°
2026-05-06 15:11 25.29295 -80.79435 1458 ft 128 kts 227°
2026-05-06 15:12 25.28725 -80.80192 1459 ft 128 kts 227°
2026-05-06 15:12 25.28163 -80.80938 1461 ft 125 kts 227°
2026-05-06 15:12 25.27608 -80.81672 1463 ft 125 kts 226°
2026-05-06 15:12 25.27039 -80.82407 1462 ft 127 kts 227°
2026-05-06 15:13 25.26460 -80.83147 1456 ft 127 kts 227°
2026-05-06 15:13 25.25889 -80.83879 1459 ft 125 kts 228°
2026-05-06 15:13 25.25323 -80.84608 1457 ft 124 kts 228°
2026-05-06 15:13 25.24764 -80.85332 1458 ft 124 kts 227°
2026-05-06 15:14 25.24196 -80.86068 1463 ft 128 kts 226°
2026-05-06 15:14 25.23618 -80.86816 1462 ft 129 kts 227°
2026-05-06 15:14 25.23032 -80.87577 1465 ft 131 kts 228°
2026-05-06 15:14 25.22439 -80.88346 1464 ft 132 kts 227°
2026-05-06 15:15 25.21838 -80.89129 1466 ft 135 kts 227°
2026-05-06 15:15 25.21235 -80.89915 1462 ft 133 kts 227°
2026-05-06 15:15 25.20646 -80.90688 1460 ft 130 kts 227°
2026-05-06 15:15 25.20071 -80.91443 1466 ft 127 kts 227°
2026-05-06 15:16 25.19505 -80.92188 1465 ft 127 kts 227°
2026-05-06 15:16 25.18936 -80.92935 1465 ft 128 kts 227°
2026-05-06 15:16 25.18365 -80.93685 1463 ft 127 kts 227°
2026-05-06 15:16 25.17799 -80.94428 1464 ft 126 kts 227°
2026-05-06 15:17 25.17235 -80.95169 1461 ft 126 kts 227°
2026-05-06 15:17 25.16677 -80.95904 1461 ft 124 kts 227°
2026-05-06 15:17 25.16119 -80.96639 1462 ft 126 kts 227°
2026-05-06 15:17 25.15553 -80.97382 1460 ft 126 kts 227°
2026-05-06 15:18 25.14992 -80.98120 1465 ft 126 kts 227°
2026-05-06 15:18 25.14430 -80.98860 1468 ft 128 kts 226°
2026-05-06 15:18 25.13854 -80.99611 1459 ft 126 kts 226°
2026-05-06 15:18 25.13297 -81.00346 1465 ft 124 kts 227°
2026-05-06 15:19 25.12735 -81.01089 1457 ft 126 kts 227°
2026-05-06 15:19 25.12172 -81.01832 1460 ft 127 kts 226°
2026-05-06 15:19 25.11606 -81.02578 1467 ft 127 kts 227°
2026-05-06 15:19 25.11048 -81.03313 1467 ft 127 kts 227°
2026-05-06 15:20 25.10481 -81.04060 1462 ft 126 kts 227°
2026-05-06 15:20 25.09914 -81.04807 1464 ft 125 kts 227°
2026-05-06 15:20 25.09365 -81.05531 1462 ft 124 kts 226°